Probability
0 0 0 0 0 0 0 0 0 0 0 0 0 0 1 2 2 2 2 2 2 1 0 0 0 0 0 0 0 0 0 0 0 0 0 0 0 0 0 0 0 0 0
0 0 0 0 0 0 0 0 0 0 0 0 0 0 0 1 1 1 1 1 1 0 0 0 0 0 0 0 0 0 0 0 0 0 0 0 0 0 0 0 0 0 0
0 0 0 0 0 0 0 0 0 0 0 0 0 0 0 0 0 0 0 0 0 0 0 0 0 0 0 0 0 0 0 0 0 0 0 0 0 0 0 0 0 0 0
0 0 0 0 0 0 0 0 0 0 0 0 0 0 0 0 0 0 0 0 0 0 0 0 0 0 0 0 0 0 0 0 0 0 0 0 0 0 0 0 0 0 0
0 0 0 0 0 0 0 0 0 0 0 0 0 0 0 0 0 0 0 0 0 0 0 0 0 0 0 0 0 0 0 0 0 0 0 0 0 0 0 0 0 0 0
0 0 0 0 0 0 0 0 0 0 0 0 0 0 0 0 0 0 0 0 0 0 0 0 0 0 0 0 0 0 0 0 0 0 0 0 0 0 0 0 0 0 0
0 0 0 0 0 0 0 0 0 0 0 0 0 0 0 0 0 0 0 0 0 0 0 0 0 0 0 0 0 0 0 0 0 0 0 0 0 0 0 0 0 0 0
0 0 0 0 0 0 0 0 0 0 0 0 0 0 0 0 0 0 0 0 0 0 0 0 0 0 0 0 0 0 0 0 0 0 0 0 0 0 0 0 0 0 0
0 0 0 0 0 0 0 0 0 0 0 0 0 0 0 0 0 0 0 0 0 0 0 0 0 0 0 0 0 0 0 0 0 0 0 0 0 0 0 0 0 0 0
0 0 0 0 0 0 0 0 0 0 0 0 0 0 0 0 0 0 0 0 0 0 0 0 0 0 0 0 0 0 0 0 0 0 0 0 0 0 0 0 0 0 0
0 0 0 0 0 0 0 0 0 0 0 0 0 0 0 0 0 0 0 0 0 0 0 0 0 0 0 0 0 0 0 0 0 0 0 0 0 0 0 0 0 0 0
0 0 0 0 0 0 0 0 0 0 0 0 0 0 0 0 0 0 0 0 0 0 0 0 0 0 0 0 0 0 0 0 0 0 0 0 0 0 0 0 0 0 0
0 0 0 0 0 0 0 0 0 0 0 0 0 0 0 0 0 0 0 0 0 0 0 0 0 0 0 0 0 0 0 0 0 0 0 0 0 0 0 0 0 0 0
0 0 0 0 0 0 0 0 0 0 0 0 0 0 0 0 0 0 0 0 0 0 0 0 0 0 0 0 0 0 0 0 0 0 0 0 0 0 0 1 0 0 0
0 0 0 0 0 0 0 0 0 0 0 0 0 0 0 0 0 0 0 0 0 0 0 0 0 0 0 0 0 0 0 0 0 0 0 0 0 0 0 0 0 0 0
0 0 0 0 0 0 0 0 0 0 0 0 0 0 0 0 0 0 0 0 0 0 0 0 0 0 0 0 0 0 0 0 0 0 0 0 0 0 0 0 0 0 0
0 0 0 0 0 0 0 0 0 0 0 0 0 0 0 0 0 0 0 0 0 0 0 0 0 0 0 0 0 0 0 0 0 0 0 0 0 0 0 0 0 0 0
0 0 0 0 0 0 0 0 0 0 0 0 0 0 0 0 0 0 0 0 0 0 0 0 0 0 0 0 0 0 0 0 0 0 0 0 0 0 0 0 0 0 0
0 0 0 0 0 0 0 0 0 0 0 0 0 0 0 0 0 0 0 0 0 0 0 0 0 0 0 0 0 0 0 0 0 0 0 0 0 0 0 0 0 0 0
0 0 0 0 0 0 0 0 0 0 0 0 0 0 0 0 0 0 0 0 0 0 0 0 0 0 0 0 0 0 0 0 0 0 0 0 0 0 0 0 0 0 0
0 0 0 0 0 0 0 0 0 0 0 0 0 0 0 0 0 0 0 0 0 0 0 0 0 0 0 0 0 0 0 0 0 0 0 0 0 0 0 0 0 0 0
0 0 0 0 0 0 0 0 0 0 0 0 0 0 0 0 0 0 0 0 0 0 0 0 0 0 0 0 0 0 0 0 0 0 0 0 0 0 0 0 0 0 0
1 0 0 0 0 0 0 0 0 0 0 0 0 0 0 0 0 0 0 0 0 0 0 0 0 0 0 0 0 0 0 0 0 0 0 0 0 0 0 0 0 0 0
1 0 0 0 0 0 0 0 0 0 0 0 0 0 0 0 0 0 0 0 0 0 0 0 0 0 0 0 0 0 0 0 0 0 0 0 0 0 0 0 0 0 0
1 0 0 0 0 0 0 0 0 0 0 0 0 0 0 0 0 0 0 0 0 0 0 0 0 0 0 0 0 0 0 0 0 0 0 0 0 0 0 0 0 0 0
0 0 0 0 0 0 0 0 0 0 0 0 0 0 0 0 0 0 0 0 0 0 0 0 0 0 0 0 0 0 0 0 0 0 0 0 0 0 0 0 0 0 0
Wind_Speed
4 4 4 3 3 2 2 2 2 2 2 2 2 2 3 3 3 2 3 3 3 3 3 3 4 3 2 2 2 2 2 1 1 3 2 2 3 3 3 3 1 1 1
4 4 4 3 3 2 2 1 1 1 1 2 2 3 3 3 3 3 3 3 3 3 4 4 4 4 4 3 2 3 2 2 1 3 3 2 3 2 2 2 2 2 1
5 4 4 3 3 2 2 2 2 2 2 2 3 3 3 3 4 4 4 4 3 3 3 4 4 5 4 3 3 3 3 3 2 2 3 2 2 2 2 3 3 2 2
5 4 4 3 3 2 2 2 2 2 2 3 3 3 4 4 5 5 5 4 4 3 3 3 3 3 3 4 4 4 4 3 3 2 2 2 2 2 2 2 3 2 2
5 5 4 4 3 2 2 3 3 3 3 3 3 4 4 4 6 6 5 5 4 4 3 2 2 3 3 3 3 3 4 3 3 2 2 2 2 2 2 2 2 2 2
6 5 4 4 3 3 3 3 3 2 3 3 3 4 5 5 7 9 7 5 5 4 4 3 2 2 3 4 4 4 4 3 2 2 2 2 2 2 2 2 1 2 2
6 6 5 4 4 3 3 3 2 1 2 2 3 3 4 4 6 8 9 5 4 3 4 4 4 5 5 4 5 5 4 5 4 2 2 2 2 2 2 2 2 2 2
7 7 5 5 4 3 3 2 1 1 1 1 2 2 2 3 4 6 8 5 4 3 4 5 5 5 6 6 5 4 3 3 4 2 2 2 2 3 2 2 2 2 2
7 7 6 5 4 4 3 2 1 1 1 0 1 1 1 1 3 5 6 4 3 4 4 5 5 4 8 10 6 5 4 3 4 5 5 4 4 4 3 1 2 1 2
7 6 6 5 5 4 3 2 1 1 1 1 1 1 1 2 2 3 5 2 3 3 3 3 5 5 8 9 6 5 5 5 5 5 5 5 4 4 4 1 1 1 1
7 6 6 5 5 4 3 2 1 1 0 1 0 0 1 2 3 1 2 2 2 3 3 2 2 5 7 9 7 4 6 6 5 4 3 3 3 2 2 2 1 1 2
6 6 6 5 4 4 3 2 1 1 1 1 1 1 0 2 3 1 0 2 3 2 3 2 2 6 8 9 7 7 10 8 4 3 3 3 2 2 2 2 2 2 2
6 6 5 5 4 4 3 3 2 1 1 1 1 1 1 1 1 2 1 2 3 2 2 4 6 8 8 7 8 9 7 4 3 3 3 3 2 2 2 2 3 3 3
7 6 5 4 4 3 3 2 2 1 1 1 1 1 1 0 1 0 1 2 3 3 3 5 7 8 6 7 7 5 3 3 3 3 3 3 2 2 2 2 2 2 2
6 6 5 4 4 3 3 1 2 2 2 2 1 1 1 1 1 1 1 1 2 2 4 3 3 3 3 3 3 3 2 2 2 3 3 3 3 3 3 2 2 2 2
5 5 4 4 3 3 3 2 0 2 2 2 2 2 1 1 2 2 3 4 5 5 4 3 4 4 4 4 3 3 2 2 2 3 3 3 2 3 3 3 2 2 2
5 4 3 4 3 3 3 3 2 1 2 3 4 4 4 4 4 5 5 5 6 5 3 4 4 4 4 3 2 2 3 3 2 2 3 3 3 3 3 3 3 2 3
4 4 4 3 3 3 3 3 3 3 2 2 4 6 6 6 7 7 6 4 3 3 3 4 4 4 3 3 3 3 3 3 2 3 3 3 3 3 3 3 3 3 3
4 3 3 3 3 3 2 2 2 3 2 2 2 2 5 6 6 7 4 3 4 4 4 4 4 3 3 3 3 3 3 3 3 3 3 4 3 3 3 3 3 5 4
3 5 4 3 3 2 2 2 2 2 2 2 2 2 2 2 2 3 3 4 4 4 4 4 3 3 3 3 3 3 3 3 3 3 3 3 3 3 3 4 3 4 4
3 4 6 4 3 2 2 2 2 2 2 2 2 2 3 2 3 3 3 4 4 4 4 3 3 3 3 2 3 3 4 4 3 3 3 3 3 3 3 3 4 4 4
3 3 3 3 2 2 2 2 2 2 2 2 2 2 4 3 3 3 3 3 3 3 3 2 3 3 3 3 3 3 3 4 3 3 3 3 3 4 4 4 4 4 5
3 3 3 3 3 3 3 2 2 2 2 2 2 2 2 3 3 3 3 3 3 3 3 2 3 3 3 3 3 3 3 4 3 3 3 4 4 4 4 5 6 6 6
3 4 4 3 3 3 3 3 2 2 2 2 2 2 3 3 3 4 3 3 3 3 3 3 4 5 6 5 4 3 3 3 3 3 4 5 5 5 5 6 6 7 6
3 3 3 3 3 3 3 3 3 3 3 3 3 3 3 3 3 3 3 3 3 4 5 5 4 5 7 7 6 5 6 6 6 5 4 4 6 7 7 7 6 6 6
3 3 3 3 3 3 3 3 3 3 3 3 3 3 3 3 3 3 3 3 3 4 5 4 6 7 8 7 7 8 8 7 8 8 6 5 6 6 7 6 8 7 7
Wind_Direction
144 134 125 122 105 91 82 72 77 67 63 64 46 43 37 25 21 26 8 8 9 8 6 11 360 1 359 357 356 352 342 336 297 305 319 338 352 356 1 356 352 280 187
139 130 125 115 103 98 91 71 80 87 60 56 42 41 37 22 15 16 8 7 10 10 7 12 4 6 6 1 359 351 338 330 331 316 321 340 341 347 346 341 336 350 352
138 131 124 116 105 98 94 74 51 56 61 56 50 46 38 24 18 13 6 359 9 14 17 22 10 11 6 353 353 353 340 341 335 327 316 324 333 350 354 350 349 342 338
134 130 122 120 114 107 88 78 48 35 48 52 45 42 41 39 29 14 2 360 3 8 17 29 26 22 4 352 355 350 344 342 337 337 322 325 334 341 14 356 350 340 327
141 138 135 123 115 107 92 81 55 34 37 49 49 46 42 48 32 20 356 358 357 358 359 13 28 27 18 359 356 345 349 347 340 334 327 341 344 352 350 332 343 329 324
144 138 125 119 115 103 92 83 68 44 31 36 53 55 49 47 32 23 9 350 342 354 350 351 10 14 3 346 339 346 352 350 336 332 331 342 328 333 332 325 337 347 326
140 132 130 127 120 113 102 91 89 67 46 32 46 64 74 60 33 14 4 342 335 350 353 355 4 18 15 4 346 336 327 322 318 305 323 318 316 320 330 327 321 314 285
141 138 137 133 132 128 116 114 130 113 89 64 59 68 88 69 35 13 357 342 337 353 6 18 16 14 12 4 346 343 333 325 313 314 297 289 298 303 300 295 290 307 304
141 143 141 138 138 136 134 149 173 124 105 113 120 114 119 100 49 20 3 339 341 355 15 22 15 20 10 5 352 339 332 322 321 326 318 304 299 304 306 333 332 346 319
144 143 140 141 142 145 149 158 151 120 159 180 148 163 149 128 114 37 13 346 347 350 359 12 23 22 10 7 358 345 336 325 328 321 316 310 303 302 304 279 249 284 307
138 137 138 141 148 150 147 148 143 146 192 289 215 202 122 122 138 77 24 356 345 343 343 347 351 7 3 351 345 333 316 310 310 311 305 307 311 311 311 306 288 233 253
131 133 139 147 156 147 139 151 156 161 195 266 279 269 203 141 146 173 320 332 336 331 324 334 325 331 332 329 326 320 321 320 310 311 317 319 322 320 316 318 314 298 263
134 140 146 148 145 141 146 161 170 179 203 231 225 242 253 173 150 176 228 312 326 316 313 314 310 311 313 312 309 309 315 315 308 307 308 298 291 291 299 308 308 302 303
149 152 151 154 153 148 149 161 166 183 208 246 261 261 272 115 88 64 305 300 302 294 289 299 302 300 295 292 297 295 283 281 288 279 282 284 294 306 304 289 286 296 304
155 156 157 156 155 153 147 150 169 179 186 198 222 242 249 247 264 261 293 300 302 302 313 301 291 288 286 281 277 273 271 283 292 287 281 287 295 299 296 296 285 287 279
159 160 157 154 154 155 152 146 59 188 174 173 183 200 205 216 253 286 293 294 298 302 308 287 285 282 279 283 285 290 289 285 283 290 288 281 283 288 294 297 289 273 273
159 157 152 154 159 167 171 174 192 236 238 236 231 226 220 231 253 270 281 292 293 294 279 270 273 277 281 281 277 279 284 285 291 299 294 286 286 287 293 292 281 276 275
153 154 152 154 160 176 188 195 196 196 213 236 238 230 228 236 248 256 266 289 289 269 253 264 271 277 280 283 283 280 280 284 285 290 292 283 278 280 282 282 281 273 273
153 155 156 157 169 184 193 203 210 213 213 210 198 227 232 240 252 254 251 246 259 262 258 260 262 265 269 273 275 280 283 281 279 282 287 281 274 276 279 277 282 286 279
164 168 163 165 179 189 195 203 213 218 221 216 215 204 202 223 247 247 236 241 251 260 262 261 259 260 264 266 269 273 281 282 282 279 282 283 276 272 273 276 274 278 272
163 170 179 183 187 193 196 200 210 219 228 227 220 205 208 228 239 244 241 243 248 256 262 266 268 268 261 262 265 268 273 275 274 274 279 285 281 273 271 271 273 273 273
165 174 184 184 185 192 196 205 214 223 230 231 223 216 224 241 247 250 251 254 253 251 253 262 269 265 256 251 255 260 266 272 276 278 279 281 284 275 269 269 273 277 273
177 181 187 194 190 193 206 215 218 223 228 227 225 227 228 244 253 258 263 267 270 273 272 271 275 275 272 264 254 251 256 261 264 268 275 277 279 282 276 272 273 275 269
191 193 196 196 196 197 208 217 221 229 231 234 239 239 238 247 260 266 268 271 275 278 279 276 271 274 282 285 273 262 259 262 270 268 269 273 276 278 278 272 270 269 265
196 195 196 195 199 203 210 218 224 231 236 239 244 247 248 252 261 266 268 271 276 276 277 279 277 278 280 281 282 278 273 271 270 270 269 267 271 273 275 274 270 271 266
203 205 205 203 206 208 213 218 222 228 237 243 244 245 248 254 261 264 265 266 270 272 273 273 274 280 282 279 279 278 274 266 266 267 268 268 268 270 272 272 272 267 265